owner,sensor,date,latitude,longitude,vertical_datum,sea_water_practical_salinity,qcFlag 
NERRS,ioos:station:NOAA.NERRS:wkbfrwq:1,2014-11-01T00:45:00Z,30.4162,-87.8228,2.11,8.0,1111122 
NERRS,ioos:station:NOAA.NERRS:wkbfrwq:1,2014-11-01T01:45:00Z,30.4162,-87.8228,2.06,10.0,1111122 
NERRS,ioos:station:NOAA.NERRS:wkbfrwq:1,2014-11-01T02:45:00Z,30.4162,-87.8228,2.08,11.3,1111122 
NERRS,ioos:station:NOAA.NERRS:wkbfrwq:1,2014-11-01T03:45:00Z,30.4162,-87.8228,2.15,10.9,1111122 
NERRS,ioos:station:NOAA.NERRS:wkbfrwq:1,2014-11-01T04:45:00Z,30.4162,-87.8228,2.14,8.7,1111122 
NERRS,ioos:station:NOAA.NERRS:wkbfrwq:1,2014-11-01T06:45:00Z,30.4162,-87.8228,1.99,8.0,1111122 
NERRS,ioos:station:NOAA.NERRS:wkbfrwq:1,2014-11-01T07:45:00Z,30.4162,-87.8228,1.87,7.6,1111122 
NERRS,ioos:station:NOAA.NERRS:wkbfrwq:1,2014-11-01T08:45:00Z,30.4162,-87.8228,1.83,8.0,1111122 
NERRS,ioos:station:NOAA.NERRS:wkbfrwq:1,2014-11-01T09:45:00Z,30.4162,-87.8228,1.91,8.7,1111122 
NERRS,ioos:station:NOAA.NERRS:wkbfrwq:1,2014-11-01T10:45:00Z,30.4162,-87.8228,1.92,8.4,1111122 
NERRS,ioos:station:NOAA.NERRS:wkbfrwq:1,2014-11-01T11:45:00Z,30.4162,-87.8228,1.87,7.8,1111122 
NERRS,ioos:station:NOAA.NERRS:wkbfrwq:1,2014-11-01T12:45:00Z,30.4162,-87.8228,1.86,9.2,1111122 
NERRS,ioos:station:NOAA.NERRS:wkbfrwq:1,2014-11-01T14:45:00Z,30.4162,-87.8228,1.97,9.0,1111122 
NERRS,ioos:station:NOAA.NERRS:wkbfrwq:1,2014-11-01T15:45:00Z,30.4162,-87.8228,1.97,8.4,1111122 
NERRS,ioos:station:NOAA.NERRS:wkbfrwq:1,2014-11-01T16:45:00Z,30.4162,-87.8228,1.98,8.2,1111122 
NERRS,ioos:station:NOAA.NERRS:wkbfrwq:1,2014-11-01T17:45:00Z,30.4162,-87.8228,1.95,8.3,1111122 
NERRS,ioos:station:NOAA.NERRS:wkbfrwq:1,2014-11-01T18:45:00Z,30.4162,-87.8228,1.95,8.2,1111122 
NERRS,ioos:station:NOAA.NERRS:wkbfrwq:1,2014-11-01T19:45:00Z,30.4162,-87.8228,1.95,8.2,1111122 
NERRS,ioos:station:NOAA.NERRS:wkbfrwq:1,2014-11-01T20:45:00Z,30.4162,-87.8228,1.97,8.2,1111122 
NERRS,ioos:station:NOAA.NERRS:wkbfrwq:1,2014-11-01T21:45:00Z,30.4162,-87.8228,1.95,7.7,1111122 
NERRS,ioos:station:NOAA.NERRS:wkbfrwq:1,2014-11-01T22:45:00Z,30.4162,-87.8228,1.94,7.5,1111122 
NERRS,ioos:station:NOAA.NERRS:wkbfrwq:1,2014-11-01T23:45:00Z,30.4162,-87.8228,1.95,8.5,1111122 
NERRS,ioos:station:NOAA.NERRS:wkbfrwq:1,2014-11-02T00:45:00Z,30.4162,-87.8228,1.99,8.7,1111122 
NERRS,ioos:station:NOAA.NERRS:wkbfrwq:1,2014-11-02T01:45:00Z,30.4162,-87.8228,2.02,9.0,1111122 
NERRS,ioos:station:NOAA.NERRS:wkbfrwq:1,2014-11-02T02:45:00Z,30.4162,-87.8228,2.01,8.9,1111122 
NERRS,ioos:station:NOAA.NERRS:wkbfrwq:1,2014-11-02T03:45:00Z,30.4162,-87.8228,1.98,9.2,1111122 
NERRS,ioos:station:NOAA.NERRS:wkbfrwq:1,2014-11-02T04:45:00Z,30.4162,-87.8228,1.97,10.1,1111122 
NERRS,ioos:station:NOAA.NERRS:wkbfrwq:1,2014-11-02T06:45:00Z,30.4162,-87.8228,1.92,9.3,1111122 
NERRS,ioos:station:NOAA.NERRS:wkbfrwq:1,2014-11-02T07:45:00Z,30.4162,-87.8228,1.89,10.0,1111122 
NERRS,ioos:station:NOAA.NERRS:wkbfrwq:1,2014-11-02T08:45:00Z,30.4162,-87.8228,1.88,10.2,1111122 
NERRS,ioos:station:NOAA.NERRS:wkbfrwq:1,2014-11-02T10:45:00Z,30.4162,-87.8228,1.93,9.5,1111122 
NERRS,ioos:station:NOAA.NERRS:wkbfrwq:1,2014-11-02T11:45:00Z,30.4162,-87.8228,1.97,9.9,1111122 
NERRS,ioos:station:NOAA.NERRS:wkbfrwq:1,2014-11-02T12:45:00Z,30.4162,-87.8228,2.02,10.4,1111122 
NERRS,ioos:station:NOAA.NERRS:wkbfrwq:1,2014-11-02T13:45:00Z,30.4162,-87.8228,2.08,9.8,1111122 
NERRS,ioos:station:NOAA.NERRS:wkbfrwq:1,2014-11-02T14:45:00Z,30.4162,-87.8228,2.12,11.0,1111122 
NERRS,ioos:station:NOAA.NERRS:wkbfrwq:1,2014-11-02T15:45:00Z,30.4162,-87.8228,2.12,11.4,1111122 
NERRS,ioos:station:NOAA.NERRS:wkbfrwq:1,2014-11-02T16:45:00Z,30.4162,-87.8228,2.12,11.2,1111122 
NERRS,ioos:station:NOAA.NERRS:wkbfrwq:1,2014-11-02T17:45:00Z,30.4162,-87.8228,2.1,11.2,1111122 
NERRS,ioos:station:NOAA.NERRS:wkbfrwq:1,2014-11-02T18:45:00Z,30.4162,-87.8228,2.06,8.3,1111122 
NERRS,ioos:station:NOAA.NERRS:wkbfrwq:1,2014-11-02T19:45:00Z,30.4162,-87.8228,2.0,9.9,1111122 
NERRS,ioos:station:NOAA.NERRS:wkbfrwq:1,2014-11-02T20:45:00Z,30.4162,-87.8228,1.98,11.4,1111122 
NERRS,ioos:station:NOAA.NERRS:wkbfrwq:1,2014-11-02T21:45:00Z,30.4162,-87.8228,2.0,10.4,1111122 
NERRS,ioos:station:NOAA.NERRS:wkbfrwq:1,2014-11-02T22:45:00Z,30.4162,-87.8228,2.02,10.1,1111122 
NERRS,ioos:station:NOAA.NERRS:wkbfrwq:1,2014-11-02T23:45:00Z,30.4162,-87.8228,2.08,10.3,1111122 
NERRS,ioos:station:NOAA.NERRS:wkbfrwq:1,2014-11-03T00:45:00Z,30.4162,-87.8228,2.12,10.4,1111122 
NERRS,ioos:station:NOAA.NERRS:wkbfrwq:1,2014-11-03T01:45:00Z,30.4162,-87.8228,2.11,10.8,1111122 
NERRS,ioos:station:NOAA.NERRS:wkbfrwq:1,2014-11-03T02:45:00Z,30.4162,-87.8228,2.12,11.2,1111122 
NERRS,ioos:station:NOAA.NERRS:wkbfrwq:1,2014-11-03T03:45:00Z,30.4162,-87.8228,2.14,11.6,1111122 
NERRS,ioos:station:NOAA.NERRS:wkbfrwq:1,2014-11-03T04:45:00Z,30.4162,-87.8228,2.14,11.5,1111122 
NERRS,ioos:station:NOAA.NERRS:wkbfrwq:1,2014-11-03T05:45:00Z,30.4162,-87.8228,2.1,11.3,1111122 
NERRS,ioos:station:NOAA.NERRS:wkbfrwq:1,2014-11-03T06:45:00Z,30.4162,-87.8228,2.06,11.2,1111122 
NERRS,ioos:station:NOAA.NERRS:wkbfrwq:1,2014-11-03T07:45:00Z,30.4162,-87.8228,2.02,11.4,1111122 
NERRS,ioos:station:NOAA.NERRS:wkbfrwq:1,2014-11-03T08:45:00Z,30.4162,-87.8228,2.02,11.6,1111122 
NERRS,ioos:station:NOAA.NERRS:wkbfrwq:1,2014-11-03T09:45:00Z,30.4162,-87.8228,2.0,11.8,1111122 
NERRS,ioos:station:NOAA.NERRS:wkbfrwq:1,2014-11-03T11:45:00Z,30.4162,-87.8228,2.02,11.7,1111122 
NERRS,ioos:station:NOAA.NERRS:wkbfrwq:1,2014-11-03T12:45:00Z,30.4162,-87.8228,2.05,11.7,1111122 
NERRS,ioos:station:NOAA.NERRS:wkbfrwq:1,2014-11-03T13:45:00Z,30.4162,-87.8228,2.07,11.3,1111122 
NERRS,ioos:station:NOAA.NERRS:wkbfrwq:1,2014-11-03T14:45:00Z,30.4162,-87.8228,2.1,11.8,1111122 
NERRS,ioos:station:NOAA.NERRS:wkbfrwq:1,2014-11-03T15:45:00Z,30.4162,-87.8228,2.16,11.3,1111122 
NERRS,ioos:station:NOAA.NERRS:wkbfrwq:1,2014-11-03T16:45:00Z,30.4162,-87.8228,2.22,11.4,1111122 
NERRS,ioos:station:NOAA.NERRS:wkbfrwq:1,2014-11-03T17:45:00Z,30.4162,-87.8228,2.22,11.3,1111122 
NERRS,ioos:station:NOAA.NERRS:wkbfrwq:1,2014-11-03T18:45:00Z,30.4162,-87.8228,2.18,11.8,1111122 
NERRS,ioos:station:NOAA.NERRS:wkbfrwq:1,2014-11-03T19:45:00Z,30.4162,-87.8228,2.16,12.1,1111122 
NERRS,ioos:station:NOAA.NERRS:wkbfrwq:1,2014-11-03T20:45:00Z,30.4162,-87.8228,2.18,12.2,1111122 
NERRS,ioos:station:NOAA.NERRS:wkbfrwq:1,2014-11-03T22:45:00Z,30.4162,-87.8228,2.23,11.2,1111122 
NERRS,ioos:station:NOAA.NERRS:wkbfrwq:1,2014-11-03T23:45:00Z,30.4162,-87.8228,2.24,11.6,1111122 
NERRS,ioos:station:NOAA.NERRS:wkbfrwq:1,2014-11-04T00:45:00Z,30.4162,-87.8228,2.28,11.3,1111122 
NERRS,ioos:station:NOAA.NERRS:wkbfrwq:1,2014-11-04T01:45:00Z,30.4162,-87.8228,2.29,11.2,1111122 
NERRS,ioos:station:NOAA.NERRS:wkbfrwq:1,2014-11-04T02:45:00Z,30.4162,-87.8228,2.31,11.3,1111122 
NERRS,ioos:station:NOAA.NERRS:wkbfrwq:1,2014-11-04T03:45:00Z,30.4162,-87.8228,2.33,11.4,1111122 
NERRS,ioos:station:NOAA.NERRS:wkbfrwq:1,2014-11-04T04:45:00Z,30.4162,-87.8228,2.34,11.5,1111122 
NERRS,ioos:station:NOAA.NERRS:wkbfrwq:1,2014-11-04T05:45:00Z,30.4162,-87.8228,2.31,11.5,1111122 
NERRS,ioos:station:NOAA.NERRS:wkbfrwq:1,2014-11-04T06:45:00Z,30.4162,-87.8228,2.25,11.3,1111122 
NERRS,ioos:station:NOAA.NERRS:wkbfrwq:1,2014-11-04T07:45:00Z,30.4162,-87.8228,2.18,11.2,1111122 
NERRS,ioos:station:NOAA.NERRS:wkbfrwq:1,2014-11-04T08:45:00Z,30.4162,-87.8228,2.14,11.2,1111122 
NERRS,ioos:station:NOAA.NERRS:wkbfrwq:1,2014-11-04T09:45:00Z,30.4162,-87.8228,2.11,11.4,1111122 
NERRS,ioos:station:NOAA.NERRS:wkbfrwq:1,2014-11-04T10:45:00Z,30.4162,-87.8228,2.11,11.8,1111122 
NERRS,ioos:station:NOAA.NERRS:wkbfrwq:1,2014-11-04T11:45:00Z,30.4162,-87.8228,2.11,11.8,1111122 
NERRS,ioos:station:NOAA.NERRS:wkbfrwq:1,2014-11-04T12:45:00Z,30.4162,-87.8228,2.13,11.8,1111122 
NERRS,ioos:station:NOAA.NERRS:wkbfrwq:1,2014-11-04T13:45:00Z,30.4162,-87.8228,2.14,12.0,1111122 
NERRS,ioos:station:NOAA.NERRS:wkbfrwq:1,2014-11-04T14:45:00Z,30.4162,-87.8228,2.16,12.0,1111122 
NERRS,ioos:station:NOAA.NERRS:wkbfrwq:1,2014-11-04T16:45:00Z,30.4162,-87.8228,2.27,12.4,1111122 
NERRS,ioos:station:NOAA.NERRS:wkbfrwq:1,2014-11-04T17:45:00Z,30.4162,-87.8228,2.3,13.0,1111122 
NERRS,ioos:station:NOAA.NERRS:wkbfrwq:1,2014-11-04T18:45:00Z,30.4162,-87.8228,2.3,13.1,1111122 
NERRS,ioos:station:NOAA.NERRS:wkbfrwq:1,2014-11-04T19:45:00Z,30.4162,-87.8228,2.29,13.2,1111122 
NERRS,ioos:station:NOAA.NERRS:wkbfrwq:1,2014-11-04T20:45:00Z,30.4162,-87.8228,2.29,13.1,1111122 
NERRS,ioos:station:NOAA.NERRS:wkbfrwq:1,2014-11-04T22:45:00Z,30.4162,-87.8228,2.34,12.1,1111122 
NERRS,ioos:station:NOAA.NERRS:wkbfrwq:1,2014-11-04T23:45:00Z,30.4162,-87.8228,2.37,11.8,1111122 
NERRS,ioos:station:NOAA.NERRS:wkbfrwq:1,2014-11-05T00:45:00Z,30.4162,-87.8228,2.41,11.8,1111122 
NERRS,ioos:station:NOAA.NERRS:wkbfrwq:1,2014-11-05T01:45:00Z,30.4162,-87.8228,2.43,11.8,1111122 
NERRS,ioos:station:NOAA.NERRS:wkbfrwq:1,2014-11-05T02:45:00Z,30.4162,-87.8228,2.45,11.7,1111122 
NERRS,ioos:station:NOAA.NERRS:wkbfrwq:1,2014-11-05T03:45:00Z,30.4162,-87.8228,2.48,11.8,1111122 
NERRS,ioos:station:NOAA.NERRS:wkbfrwq:1,2014-11-05T04:45:00Z,30.4162,-87.8228,2.5,11.9,1111122 
NERRS,ioos:station:NOAA.NERRS:wkbfrwq:1,2014-11-05T05:45:00Z,30.4162,-87.8228,2.46,11.8,1111122 
NERRS,ioos:station:NOAA.NERRS:wkbfrwq:1,2014-11-05T06:45:00Z,30.4162,-87.8228,2.38,11.8,1111122 
NERRS,ioos:station:NOAA.NERRS:wkbfrwq:1,2014-11-05T07:45:00Z,30.4162,-87.8228,2.31,11.9,1111122 
NERRS,ioos:station:NOAA.NERRS:wkbfrwq:1,2014-11-05T08:45:00Z,30.4162,-87.8228,2.25,11.8,1111122 
NERRS,ioos:station:NOAA.NERRS:wkbfrwq:1,2014-11-05T09:45:00Z,30.4162,-87.8228,2.19,11.7,1111122 
NERRS,ioos:station:NOAA.NERRS:wkbfrwq:1,2014-11-05T10:45:00Z,30.4162,-87.8228,2.17,11.9,1111122 
NERRS,ioos:station:NOAA.NERRS:wkbfrwq:1,2014-11-05T11:45:00Z,30.4162,-87.8228,2.15,12.0,1111122 
NERRS,ioos:station:NOAA.NERRS:wkbfrwq:1,2014-11-05T12:45:00Z,30.4162,-87.8228,2.12,12.4,1111122 
NERRS,ioos:station:NOAA.NERRS:wkbfrwq:1,2014-11-05T13:45:00Z,30.4162,-87.8228,2.11,13.4,1111122 
NERRS,ioos:station:NOAA.NERRS:wkbfrwq:1,2014-11-05T14:45:00Z,30.4162,-87.8228,2.16,13.7,1111122 
NERRS,ioos:station:NOAA.NERRS:wkbfrwq:1,2014-11-05T15:45:00Z,30.4162,-87.8228,2.24,12.6,1111122 
NERRS,ioos:station:NOAA.NERRS:wkbfrwq:1,2014-11-05T16:45:00Z,30.4162,-87.8228,2.27,13.3,1111122 
NERRS,ioos:station:NOAA.NERRS:wkbfrwq:1,2014-11-05T17:45:00Z,30.4162,-87.8228,2.29,13.1,1111122 
NERRS,ioos:station:NOAA.NERRS:wkbfrwq:1,2014-11-05T18:45:00Z,30.4162,-87.8228,2.31,13.5,1111122 
NERRS,ioos:station:NOAA.NERRS:wkbfrwq:1,2014-11-05T19:45:00Z,30.4162,-87.8228,2.32,12.6,1111122 
NERRS,ioos:station:NOAA.NERRS:wkbfrwq:1,2014-11-05T20:45:00Z,30.4162,-87.8228,2.34,13.0,1111122 
NERRS,ioos:station:NOAA.NERRS:wkbfrwq:1,2014-11-05T21:45:00Z,30.4162,-87.8228,2.4,12.4,1111122 
NERRS,ioos:station:NOAA.NERRS:wkbfrwq:1,2014-11-05T22:45:00Z,30.4162,-87.8228,2.45,11.7,1111122 
NERRS,ioos:station:NOAA.NERRS:wkbfrwq:1,2014-11-05T23:45:00Z,30.4162,-87.8228,2.47,11.9,1111122 
NERRS,ioos:station:NOAA.NERRS:wkbfrwq:1,2014-11-06T00:45:00Z,30.4162,-87.8228,2.47,12.2,1111122 
NERRS,ioos:station:NOAA.NERRS:wkbfrwq:1,2014-11-06T01:45:00Z,30.4162,-87.8228,2.47,12.5,1111122 
NERRS,ioos:station:NOAA.NERRS:wkbfrwq:1,2014-11-06T02:45:00Z,30.4162,-87.8228,2.51,12.6,1111122 
NERRS,ioos:station:NOAA.NERRS:wkbfrwq:1,2014-11-06T03:45:00Z,30.4162,-87.8228,2.54,12.4,1111122 
NERRS,ioos:station:NOAA.NERRS:wkbfrwq:1,2014-11-06T04:45:00Z,30.4162,-87.8228,2.52,12.5,1111122 
NERRS,ioos:station:NOAA.NERRS:wkbfrwq:1,2014-11-06T05:45:00Z,30.4162,-87.8228,2.47,12.6,1111122 
NERRS,ioos:station:NOAA.NERRS:wkbfrwq:1,2014-11-06T06:45:00Z,30.4162,-87.8228,2.4,12.5,1111122 
NERRS,ioos:station:NOAA.NERRS:wkbfrwq:1,2014-11-06T08:45:00Z,30.4162,-87.8228,2.27,12.1,1111122 
NERRS,ioos:station:NOAA.NERRS:wkbfrwq:1,2014-11-06T09:45:00Z,30.4162,-87.8228,2.2,12.3,1111122 
NERRS,ioos:station:NOAA.NERRS:wkbfrwq:1,2014-11-06T10:45:00Z,30.4162,-87.8228,2.15,12.5,1111122 
NERRS,ioos:station:NOAA.NERRS:wkbfrwq:1,2014-11-06T11:45:00Z,30.4162,-87.8228,2.1,12.3,1111122 
NERRS,ioos:station:NOAA.NERRS:wkbfrwq:1,2014-11-06T12:45:00Z,30.4162,-87.8228,2.06,12.3,1111122 
NERRS,ioos:station:NOAA.NERRS:wkbfrwq:1,2014-11-06T13:45:00Z,30.4162,-87.8228,2.06,13.3,1111122 
NERRS,ioos:station:NOAA.NERRS:wkbfrwq:1,2014-11-06T14:45:00Z,30.4162,-87.8228,2.06,13.7,1111122 
NERRS,ioos:station:NOAA.NERRS:wkbfrwq:1,2014-11-06T15:45:00Z,30.4162,-87.8228,2.1,13.9,1111122 
NERRS,ioos:station:NOAA.NERRS:wkbfrwq:1,2014-11-06T16:45:00Z,30.4162,-87.8228,2.16,13.7,1111122 
NERRS,ioos:station:NOAA.NERRS:wkbfrwq:1,2014-11-06T17:45:00Z,30.4162,-87.8228,2.2,13.8,1111122 
NERRS,ioos:station:NOAA.NERRS:wkbfrwq:1,2014-11-06T18:45:00Z,30.4162,-87.8228,2.24,14.3,1111122 
NERRS,ioos:station:NOAA.NERRS:wkbfrwq:1,2014-11-06T19:45:00Z,30.4162,-87.8228,2.25,14.4,1111122 
NERRS,ioos:station:NOAA.NERRS:wkbfrwq:1,2014-11-06T20:45:00Z,30.4162,-87.8228,2.29,14.1,1111122 
NERRS,ioos:station:NOAA.NERRS:wkbfrwq:1,2014-11-06T22:45:00Z,30.4162,-87.8228,2.35,13.6,1111122 
NERRS,ioos:station:NOAA.NERRS:wkbfrwq:1,2014-11-06T23:45:00Z,30.4162,-87.8228,2.37,13.9,1111122 
NERRS,ioos:station:NOAA.NERRS:wkbfrwq:1,2014-11-07T00:45:00Z,30.4162,-87.8228,2.45,14.0,1111122 
NERRS,ioos:station:NOAA.NERRS:wkbfrwq:1,2014-11-07T01:45:00Z,30.4162,-87.8228,2.48,13.6,1111122 
NERRS,ioos:station:NOAA.NERRS:wkbfrwq:1,2014-11-07T02:45:00Z,30.4162,-87.8228,2.49,14.4,1111122 
NERRS,ioos:station:NOAA.NERRS:wkbfrwq:1,2014-11-07T03:45:00Z,30.4162,-87.8228,2.46,14.6,1111122 
NERRS,ioos:station:NOAA.NERRS:wkbfrwq:1,2014-11-07T04:45:00Z,30.4162,-87.8228,2.41,14.6,1111122 
NERRS,ioos:station:NOAA.NERRS:wkbfrwq:1,2014-11-07T05:45:00Z,30.4162,-87.8228,2.36,14.5,1111122 
NERRS,ioos:station:NOAA.NERRS:wkbfrwq:1,2014-11-07T06:45:00Z,30.4162,-87.8228,2.28,14.2,1111122 
NERRS,ioos:station:NOAA.NERRS:wkbfrwq:1,2014-11-07T07:45:00Z,30.4162,-87.8228,2.18,13.7,1111122 
NERRS,ioos:station:NOAA.NERRS:wkbfrwq:1,2014-11-07T08:45:00Z,30.4162,-87.8228,2.09,13.6,1111122 
NERRS,ioos:station:NOAA.NERRS:wkbfrwq:1,2014-11-07T09:45:00Z,30.4162,-87.8228,1.99,13.2,1111122 
NERRS,ioos:station:NOAA.NERRS:wkbfrwq:1,2014-11-07T10:45:00Z,30.4162,-87.8228,1.93,13.0,1111122 
NERRS,ioos:station:NOAA.NERRS:wkbfrwq:1,2014-11-07T12:45:00Z,30.4162,-87.8228,1.87,13.3,1111122 
NERRS,ioos:station:NOAA.NERRS:wkbfrwq:1,2014-11-07T13:45:00Z,30.4162,-87.8228,1.81,12.9,1111122 
NERRS,ioos:station:NOAA.NERRS:wkbfrwq:1,2014-11-07T14:45:00Z,30.4162,-87.8228,1.8,13.4,1111122 
NERRS,ioos:station:NOAA.NERRS:wkbfrwq:1,2014-11-07T15:45:00Z,30.4162,-87.8228,1.85,13.0,1111122 
NERRS,ioos:station:NOAA.NERRS:wkbfrwq:1,2014-11-07T16:45:00Z,30.4162,-87.8228,1.94,11.1,1111122 
NERRS,ioos:station:NOAA.NERRS:wkbfrwq:1,2014-11-07T17:45:00Z,30.4162,-87.8228,1.99,12.6,1111122 
NERRS,ioos:station:NOAA.NERRS:wkbfrwq:1,2014-11-07T18:45:00Z,30.4162,-87.8228,2.06,12.6,1111122 
NERRS,ioos:station:NOAA.NERRS:wkbfrwq:1,2014-11-07T19:45:00Z,30.4162,-87.8228,2.12,12.5,1111122 
NERRS,ioos:station:NOAA.NERRS:wkbfrwq:1,2014-11-07T20:45:00Z,30.4162,-87.8228,2.18,13.0,1111122 
NERRS,ioos:station:NOAA.NERRS:wkbfrwq:1,2014-11-07T21:45:00Z,30.4162,-87.8228,2.21,13.4,1111122 
NERRS,ioos:station:NOAA.NERRS:wkbfrwq:1,2014-11-07T22:45:00Z,30.4162,-87.8228,2.25,13.4,1111122 
NERRS,ioos:station:NOAA.NERRS:wkbfrwq:1,2014-11-07T23:45:00Z,30.4162,-87.8228,2.33,13.1,1111122 
NERRS,ioos:station:NOAA.NERRS:wkbfrwq:1,2014-11-08T00:45:00Z,30.4162,-87.8228,2.4,12.7,1111122 
NERRS,ioos:station:NOAA.NERRS:wkbfrwq:1,2014-11-08T01:45:00Z,30.4162,-87.8228,2.44,13.4,1111122 
NERRS,ioos:station:NOAA.NERRS:wkbfrwq:1,2014-11-08T02:45:00Z,30.4162,-87.8228,2.47,14.2,1111122 
NERRS,ioos:station:NOAA.NERRS:wkbfrwq:1,2014-11-08T03:45:00Z,30.4162,-87.8228,2.48,14.7,1111122 
NERRS,ioos:station:NOAA.NERRS:wkbfrwq:1,2014-11-08T04:45:00Z,30.4162,-87.8228,2.47,14.8,1111122 
NERRS,ioos:station:NOAA.NERRS:wkbfrwq:1,2014-11-08T05:45:00Z,30.4162,-87.8228,2.46,15.1,1111122 
NERRS,ioos:station:NOAA.NERRS:wkbfrwq:1,2014-11-08T06:45:00Z,30.4162,-87.8228,2.42,15.6,1111122 
NERRS,ioos:station:NOAA.NERRS:wkbfrwq:1,2014-11-08T07:45:00Z,30.4162,-87.8228,2.34,14.1,1111122 
NERRS,ioos:station:NOAA.NERRS:wkbfrwq:1,2014-11-08T08:45:00Z,30.4162,-87.8228,2.25,14.0,1111122 
NERRS,ioos:station:NOAA.NERRS:wkbfrwq:1,2014-11-08T09:45:00Z,30.4162,-87.8228,2.18,14.1,1111122 
NERRS,ioos:station:NOAA.NERRS:wkbfrwq:1,2014-11-08T10:45:00Z,30.4162,-87.8228,2.1,13.4,1111122 
NERRS,ioos:station:NOAA.NERRS:wkbfrwq:1,2014-11-08T11:45:00Z,30.4162,-87.8228,2.04,13.2,1111122 
NERRS,ioos:station:NOAA.NERRS:wkbfrwq:1,2014-11-08T12:45:00Z,30.4162,-87.8228,1.99,13.6,1111122 
NERRS,ioos:station:NOAA.NERRS:wkbfrwq:1,2014-11-08T13:45:00Z,30.4162,-87.8228,1.95,13.5,1111122 
NERRS,ioos:station:NOAA.NERRS:wkbfrwq:1,2014-11-08T14:45:00Z,30.4162,-87.8228,1.93,13.5,1111122 
NERRS,ioos:station:NOAA.NERRS:wkbfrwq:1,2014-11-08T15:45:00Z,30.4162,-87.8228,1.91,14.9,1111122 
NERRS,ioos:station:NOAA.NERRS:wkbfrwq:1,2014-11-08T16:45:00Z,30.4162,-87.8228,1.93,15.3,1111122 
NERRS,ioos:station:NOAA.NERRS:wkbfrwq:1,2014-11-08T17:45:00Z,30.4162,-87.8228,1.93,15.5,1111122 
NERRS,ioos:station:NOAA.NERRS:wkbfrwq:1,2014-11-08T18:45:00Z,30.4162,-87.8228,1.96,15.6,1111122 
NERRS,ioos:station:NOAA.NERRS:wkbfrwq:1,2014-11-08T19:45:00Z,30.4162,-87.8228,2.03,15.3,1111122 
NERRS,ioos:station:NOAA.NERRS:wkbfrwq:1,2014-11-08T20:45:00Z,30.4162,-87.8228,2.12,14.8,1111122 
NERRS,ioos:station:NOAA.NERRS:wkbfrwq:1,2014-11-08T21:45:00Z,30.4162,-87.8228,2.17,15.1,1111122 
NERRS,ioos:station:NOAA.NERRS:wkbfrwq:1,2014-11-08T22:45:00Z,30.4162,-87.8228,2.22,15.3,1111122 
NERRS,ioos:station:NOAA.NERRS:wkbfrwq:1,2014-11-08T23:45:00Z,30.4162,-87.8228,2.27,15.1,1111122 
NERRS,ioos:station:NOAA.NERRS:wkbfrwq:1,2014-11-09T00:45:00Z,30.4162,-87.8228,2.32,15.2,1111122 
NERRS,ioos:station:NOAA.NERRS:wkbfrwq:1,2014-11-09T01:45:00Z,30.4162,-87.8228,2.38,15.2,1111122 
NERRS,ioos:station:NOAA.NERRS:wkbfrwq:1,2014-11-09T02:45:00Z,30.4162,-87.8228,2.44,15.0,1111122 
NERRS,ioos:station:NOAA.NERRS:wkbfrwq:1,2014-11-09T03:45:00Z,30.4162,-87.8228,2.51,14.8,1111122 
NERRS,ioos:station:NOAA.NERRS:wkbfrwq:1,2014-11-09T04:45:00Z,30.4162,-87.8228,2.54,14.8,1111122 
NERRS,ioos:station:NOAA.NERRS:wkbfrwq:1,2014-11-09T05:45:00Z,30.4162,-87.8228,2.52,15.1,1111122 
NERRS,ioos:station:NOAA.NERRS:wkbfrwq:1,2014-11-09T06:45:00Z,30.4162,-87.8228,2.48,15.0,1111122 
NERRS,ioos:station:NOAA.NERRS:wkbfrwq:1,2014-11-09T07:45:00Z,30.4162,-87.8228,2.42,15.0,1111122 
NERRS,ioos:station:NOAA.NERRS:wkbfrwq:1,2014-11-09T08:45:00Z,30.4162,-87.8228,2.35,14.9,1111122 
NERRS,ioos:station:NOAA.NERRS:wkbfrwq:1,2014-11-09T09:45:00Z,30.4162,-87.8228,2.27,14.9,1111122 
NERRS,ioos:station:NOAA.NERRS:wkbfrwq:1,2014-11-09T10:45:00Z,30.4162,-87.8228,2.18,14.5,1111122 
NERRS,ioos:station:NOAA.NERRS:wkbfrwq:1,2014-11-09T11:45:00Z,30.4162,-87.8228,2.11,14.4,1111122 
NERRS,ioos:station:NOAA.NERRS:wkbfrwq:1,2014-11-09T12:45:00Z,30.4162,-87.8228,2.06,13.9,1111122 
NERRS,ioos:station:NOAA.NERRS:wkbfrwq:1,2014-11-09T13:45:00Z,30.4162,-87.8228,2.03,14.5,1111122 
NERRS,ioos:station:NOAA.NERRS:wkbfrwq:1,2014-11-09T14:45:00Z,30.4162,-87.8228,1.99,14.4,1111122 
NERRS,ioos:station:NOAA.NERRS:wkbfrwq:1,2014-11-09T15:45:00Z,30.4162,-87.8228,1.95,14.3,1111122 
NERRS,ioos:station:NOAA.NERRS:wkbfrwq:1,2014-11-09T16:45:00Z,30.4162,-87.8228,1.93,14.8,1111122 
NERRS,ioos:station:NOAA.NERRS:wkbfrwq:1,2014-11-09T17:45:00Z,30.4162,-87.8228,1.97,15.3,1111122 
NERRS,ioos:station:NOAA.NERRS:wkbfrwq:1,2014-11-09T18:45:00Z,30.4162,-87.8228,2.02,15.2,1111122 
NERRS,ioos:station:NOAA.NERRS:wkbfrwq:1,2014-11-09T19:45:00Z,30.4162,-87.8228,2.06,15.4,1111122 
NERRS,ioos:station:NOAA.NERRS:wkbfrwq:1,2014-11-09T20:45:00Z,30.4162,-87.8228,2.09,15.6,1111122 
NERRS,ioos:station:NOAA.NERRS:wkbfrwq:1,2014-11-09T21:45:00Z,30.4162,-87.8228,2.14,15.1,1111122 
NERRS,ioos:station:NOAA.NERRS:wkbfrwq:1,2014-11-09T22:45:00Z,30.4162,-87.8228,2.23,14.5,1111122 
NERRS,ioos:station:NOAA.NERRS:wkbfrwq:1,2014-11-09T23:45:00Z,30.4162,-87.8228,2.3,14.7,1111122 
NERRS,ioos:station:NOAA.NERRS:wkbfrwq:1,2014-11-10T00:45:00Z,30.4162,-87.8228,2.33,14.9,1111122 
NERRS,ioos:station:NOAA.NERRS:wkbfrwq:1,2014-11-10T03:45:00Z,30.4162,-87.8228,2.46,14.9,1111122 
NERRS,ioos:station:NOAA.NERRS:wkbfrwq:1,2014-11-10T04:45:00Z,30.4162,-87.8228,2.48,15.0,1111122 
NERRS,ioos:station:NOAA.NERRS:wkbfrwq:1,2014-11-10T07:45:00Z,30.4162,-87.8228,2.32,15.1,1111122 
NERRS,ioos:station:NOAA.NERRS:wkbfrwq:1,2014-11-10T08:45:00Z,30.4162,-87.8228,2.28,15.1,1111122 
NERRS,ioos:station:NOAA.NERRS:wkbfrwq:1,2014-11-10T09:45:00Z,30.4162,-87.8228,2.24,15.1,1111122 
NERRS,ioos:station:NOAA.NERRS:wkbfrwq:1,2014-11-10T10:45:00Z,30.4162,-87.8228,2.16,14.7,1111122 
NERRS,ioos:station:NOAA.NERRS:wkbfrwq:1,2014-11-10T11:45:00Z,30.4162,-87.8228,2.07,14.5,1111122 
NERRS,ioos:station:NOAA.NERRS:wkbfrwq:1,2014-11-10T14:45:00Z,30.4162,-87.8228,1.95,14.7,1111122 
NERRS,ioos:station:NOAA.NERRS:wkbfrwq:1,2014-11-10T15:45:00Z,30.4162,-87.8228,1.93,14.8,1111122 
NERRS,ioos:station:NOAA.NERRS:wkbfrwq:1,2014-11-10T16:45:00Z,30.4162,-87.8228,1.92,14.8,1111122 
NERRS,ioos:station:NOAA.NERRS:wkbfrwq:1,2014-11-10T17:45:00Z,30.4162,-87.8228,1.91,15.1,1111122 
NERRS,ioos:station:NOAA.NERRS:wkbfrwq:1,2014-11-10T18:45:00Z,30.4162,-87.8228,1.95,15.0,1111122 
NERRS,ioos:station:NOAA.NERRS:wkbfrwq:1,2014-11-10T19:45:00Z,30.4162,-87.8228,2.0,14.7,1111122 
NERRS,ioos:station:NOAA.NERRS:wkbfrwq:1,2014-11-10T20:45:00Z,30.4162,-87.8228,2.05,14.8,1111122 
NERRS,ioos:station:NOAA.NERRS:wkbfrwq:1,2014-11-10T21:45:00Z,30.4162,-87.8228,2.1,14.6,1111122 
NERRS,ioos:station:NOAA.NERRS:wkbfrwq:1,2014-11-10T22:45:00Z,30.4162,-87.8228,2.14,14.4,1111122 
NERRS,ioos:station:NOAA.NERRS:wkbfrwq:1,2014-11-10T23:45:00Z,30.4162,-87.8228,2.19,13.9,1111122 
NERRS,ioos:station:NOAA.NERRS:wkbfrwq:1,2014-11-11T00:45:00Z,30.4162,-87.8228,2.25,13.3,1111122 
NERRS,ioos:station:NOAA.NERRS:wkbfrwq:1,2014-11-11T01:45:00Z,30.4162,-87.8228,2.32,13.3,1111122 
NERRS,ioos:station:NOAA.NERRS:wkbfrwq:1,2014-11-11T02:45:00Z,30.4162,-87.8228,2.37,13.3,1111122 
NERRS,ioos:station:NOAA.NERRS:wkbfrwq:1,2014-11-11T03:45:00Z,30.4162,-87.8228,2.41,13.5,1111122 
NERRS,ioos:station:NOAA.NERRS:wkbfrwq:1,2014-11-11T04:45:00Z,30.4162,-87.8228,2.45,13.6,1111122 
NERRS,ioos:station:NOAA.NERRS:wkbfrwq:1,2014-11-11T05:45:00Z,30.4162,-87.8228,2.46,13.6,1111122 
NERRS,ioos:station:NOAA.NERRS:wkbfrwq:1,2014-11-11T06:45:00Z,30.4162,-87.8228,2.46,13.7,1111122 
NERRS,ioos:station:NOAA.NERRS:wkbfrwq:1,2014-11-11T07:45:00Z,30.4162,-87.8228,2.42,13.7,1111122 
NERRS,ioos:station:NOAA.NERRS:wkbfrwq:1,2014-11-11T08:45:00Z,30.4162,-87.8228,2.37,13.6,1111122 
NERRS,ioos:station:NOAA.NERRS:wkbfrwq:1,2014-11-11T09:45:00Z,30.4162,-87.8228,2.28,13.6,1111122 
NERRS,ioos:station:NOAA.NERRS:wkbfrwq:1,2014-11-11T10:45:00Z,30.4162,-87.8228,2.21,13.6,1111122 
NERRS,ioos:station:NOAA.NERRS:wkbfrwq:1,2014-11-11T11:45:00Z,30.4162,-87.8228,2.16,13.3,1111122 
NERRS,ioos:station:NOAA.NERRS:wkbfrwq:1,2014-11-11T12:45:00Z,30.4162,-87.8228,2.1,13.2,1111122 
NERRS,ioos:station:NOAA.NERRS:wkbfrwq:1,2014-11-11T13:45:00Z,30.4162,-87.8228,2.04,13.4,1111122 
NERRS,ioos:station:NOAA.NERRS:wkbfrwq:1,2014-11-11T14:45:00Z,30.4162,-87.8228,2.0,13.4,1111122 
NERRS,ioos:station:NOAA.NERRS:wkbfrwq:1,2014-11-11T15:45:00Z,30.4162,-87.8228,1.95,13.5,1111122 
NERRS,ioos:station:NOAA.NERRS:wkbfrwq:1,2014-11-11T16:45:00Z,30.4162,-87.8228,1.91,13.8,1111122 
NERRS,ioos:station:NOAA.NERRS:wkbfrwq:1,2014-11-11T17:45:00Z,30.4162,-87.8228,1.92,14.3,1111122 
NERRS,ioos:station:NOAA.NERRS:wkbfrwq:1,2014-11-11T18:45:00Z,30.4162,-87.8228,1.94,14.4,1111122 
NERRS,ioos:station:NOAA.NERRS:wkbfrwq:1,2014-11-11T19:45:00Z,30.4162,-87.8228,1.97,14.7,1111122 
NERRS,ioos:station:NOAA.NERRS:wkbfrwq:1,2014-11-11T20:45:00Z,30.4162,-87.8228,2.01,14.7,1111122 
NERRS,ioos:station:NOAA.NERRS:wkbfrwq:1,2014-11-11T22:45:00Z,30.4162,-87.8228,2.13,14.0,1111122 
NERRS,ioos:station:NOAA.NERRS:wkbfrwq:1,2014-11-11T23:45:00Z,30.4162,-87.8228,2.18,13.1,1111122 
NERRS,ioos:station:NOAA.NERRS:wkbfrwq:1,2014-11-12T00:45:00Z,30.4162,-87.8228,2.24,13.1,1111122 